00:00:10,657B14E0,0,0,18575,0,0,145
00:00:18,657B15E0,0,0,18575,0,0,145
00:00:26,657B16E0,0,0,18575,0,0,145
00:00:34,657B17E0,0,0,18575,0,0,145
00:00:42,657B18E0,0,0,18575,0,0,145
00:00:50,657B19E0,0,0,18575,0,0,145
00:00:58,657B1AE0,0,0,18575,0,0,145
00:01:14,657B1CE0,0,0,18575,0,0,146
00:01:22,657B1DE0,0,0,18575,0,0,146
00:01:30,657B1EE0,0,0,18575,0,0,146
00:01:38,657B1FE0,0,0,18575,0,0,146
00:01:46,657B20E0,0,0,18575,0,0,146
00:01:54,657B21E0,0,0,18575,0,0,146
00:02:02,657B22E0,0,0,18575,0,0,145
00:02:18,657B24E0,0,0,18575,0,0,144
00:02:26,657B25E0,0,0,18575,0,0,144
00:02:34,657B26E0,0,0,18575,0,0,144
00:02:42,657B27E0,0,0,18575,0,0,143
00:02:50,657B28E0,0,0,18575,0,0,143
00:02:58,657B29E0,0,0,18575,0,0,142
00:03:06,657B2AE0,0,0,18575,0,0,142
00:03:22,657B2CE0,0,0,18575,0,0,142
00:03:30,657B2DE0,0,0,18575,0,0,141
00:03:38,657B2EE0,0,0,18575,0,0,141
00:03:54,657B30E0,0,0,18575,0,0,141
00:04:02,657B31E0,0,0,18575,0,0,141
00:04:10,657B32E0,0,0,18575,0,0,141
00:04:26,657B34E0,0,0,18575,0,0,141
00:04:34,657B35E0,0,0,18575,0,0,141
00:04:42,657B36E0,0,0,18575,0,0,142
00:04:50,657B37E0,0,0,18575,0,0,142
00:04:58,657B38E0,0,0,18575,0,0,142
00:05:06,657B39E0,0,0,18575,0,0,142
00:05:14,657B3AE0,0,0,18575,0,0,143
00:05:30,657B3CE0,0,0,18575,0,0,143
00:05:38,657B3DE0,0,0,18575,0,0,143
00:05:46,657B3EE0,0,0,18575,0,0,143
00:05:54,657B3FE0,0,0,18575,0,0,144
00:06:02,657B40E0,0,0,18575,0,0,144
00:06:10,657B41E0,0,0,18575,0,0,144
00:06:18,657B42E0,0,0,18575,0,0,144
00:06:34,657B44E0,0,0,18575,0,0,144
00:06:42,657B45E0,0,0,18575,0,0,144
00:06:50,657B46E0,0,0,18575,0,0,145
00:06:58,657B47E0,0,0,18575,0,0,145
00:07:06,657B48E0,0,0,18575,0,0,145
00:07:14,657B49E0,0,0,18575,0,0,145
00:07:22,657B4AE0,0,0,18575,0,0,145
00:07:38,657B4CE0,0,0,18575,0,0,145
00:07:46,657B4DE0,0,0,18575,0,0,145
00:07:54,657B4EE0,0,0,18575,0,0,145
00:08:10,657B50E0,0,0,18575,0,0,146
00:08:18,657B51E0,0,0,18575,0,0,146
00:08:26,657B52E0,0,0,18575,0,0,146
00:08:42,657B54E0,0,0,18575,0,0,146
00:08:50,657B55E0,0,0,18575,0,0,145
00:08:58,657B56E0,0,0,18575,0,0,145
00:09:06,657B57E0,0,0,18575,0,0,145
00:09:14,657B58E0,0,0,18575,0,0,144
00:09:22,657B59E0,0,0,18575,0,0,144
00:09:30,657B5AE0,0,0,18575,0,0,144
00:09:46,657B5CE0,0,0,18575,0,0,143
00:09:54,657B5DE0,0,0,18575,0,0,143
00:10:02,657B5EE0,0,0,18575,0,0,142
00:10:10,657B5FE0,0,0,18575,0,0,142
00:10:18,657B60E0,0,0,18575,0,0,142
00:10:26,657B61E0,0,0,18575,0,0,141
00:10:34,657B62E0,0,0,18575,0,0,141
00:10:50,657B64E0,0,0,18575,0,0,141
00:10:58,657B65E0,0,0,18575,0,0,141
00:11:06,657B66E0,0,0,18575,0,0,141
00:11:14,657B67E0,0,0,18575,0,0,141
00:11:22,657B68E0,0,0,18575,0,0,141
00:11:30,657B69E0,0,0,18575,0,0,141
00:11:38,657B6AE0,0,0,18575,0,0,142
00:11:54,657B6CE0,0,0,18575,0,0,142
00:12:02,657B6DE0,0,0,18575,0,0,142
00:12:10,657B6EE0,0,0,18575,0,0,142
00:12:26,657B70E0,0,0,18575,0,0,143
00:12:34,657B71E0,0,0,18575,0,0,143
00:12:42,657B72E0,0,0,18575,0,0,143
00:12:58,657B74E0,0,0,18575,0,0,144
00:13:06,657B75E0,0,0,18575,0,0,144
00:13:14,657B76E0,0,0,18575,0,0,144
00:13:22,657B77E0,0,0,18575,0,0,144
00:13:30,657B78E0,0,0,18575,0,0,144
00:13:38,657B79E0,0,0,18575,0,0,144
00:13:46,657B7AE0,0,0,18575,0,0,144
00:14:02,657B7CE0,0,0,18575,0,0,145
00:14:10,657B7DE0,0,0,18575,0,0,145
00:14:18,657B7EE0,0,0,18575,0,0,145
00:14:26,657B7FE0,0,0,18575,0,0,145
00:14:34,657B80E0,0,0,18575,0,0,145
00:14:42,657B81E0,0,0,18575,0,0,145
00:14:50,657B82E0,0,0,18575,0,0,145
00:15:06,657B84E0,0,0,18575,0,0,146
00:15:14,657B85E0,0,0,18575,0,0,146
00:15:22,657B86E0,0,0,18575,0,0,146
00:15:30,657B87E0,0,0,18575,0,0,146
00:15:38,657B88E0,0,0,18575,0,0,146
00:15:46,657B89E0,0,0,18575,0,0,146
00:15:54,657B8AE0,0,0,18575,0,0,145
00:16:10,657B8CE0,0,0,18575,0,0,145
00:16:18,657B8DE0,0,0,18575,0,0,144
00:16:26,657B8EE0,0,0,18575,0,0,144
00:16:42,657B90E0,0,0,18575,0,0,143
00:16:50,657B91E0,0,0,18575,0,0,143
00:16:58,657B92E0,0,0,18575,0,0,142
00:17:14,657B94E0,0,0,18575,0,0,142
00:17:22,657B95E0,0,0,18575,0,0,141
00:17:30,657B96E0,0,0,18575,0,0,141
00:17:38,657B97E0,0,0,18575,0,0,141
00:17:46,657B98E0,0,0,18575,0,0,141
00:17:54,657B99E0,0,0,18575,0,0,141
00:18:02,657B9AE0,0,0,18575,0,0,141
00:18:18,657B9CE0,0,0,18575,0,0,141
00:18:26,657B9DE0,0,0,18575,0,0,141
00:18:34,657B9EE0,0,0,18575,0,0,142
00:18:42,657B9FE0,0,0,18575,0,0,142
00:18:50,657BA0E0,0,0,18575,0,0,142
00:18:58,657BA1E0,0,0,18575,0,0,142
00:19:06,657BA2E0,0,0,18575,0,0,142
00:19:22,657BA4E0,0,0,18575,0,0,143
00:19:30,657BA5E0,0,0,18575,0,0,143
00:19:38,657BA6E0,0,0,18575,0,0,143
00:19:46,657BA7E0,0,0,18575,0,0,144
00:19:54,657BA8E0,0,0,18575,0,0,144
00:20:02,657BA9E0,0,0,18575,0,0,144
00:20:10,657BAAE0,0,0,18575,0,0,144
00:20:26,657BACE0,0,0,18575,0,0,144
00:20:34,657BADE0,0,0,18575,0,0,144
00:20:42,657BAEE0,0,0,18575,0,0,144
00:20:58,657BB0E0,0,0,18575,0,0,145
00:21:06,657BB1E0,0,0,18575,0,0,145
00:21:14,657BB2E0,0,0,18575,0,0,145
00:21:30,657BB4E0,0,0,18575,0,0,145
00:21:38,657BB5E0,0,0,18575,0,0,146
00:21:46,657BB6E0,0,0,18575,0,0,146
00:21:54,657BB7E0,0,0,18575,0,0,146
00:22:02,657BB8E0,0,0,18575,0,0,146
00:22:10,657BB9E0,0,0,18575,0,0,146
00:22:18,657BBAE0,0,0,18575,0,0,146
00:22:34,657BBCE0,0,0,18575,0,0,145
00:22:42,657BBDE0,0,0,18575,0,0,145
00:22:50,657BBEE0,0,0,18575,0,0,145
00:22:58,657BBFE0,0,0,18575,0,0,144
00:23:06,657BC0E0,0,0,18575,0,0,144
00:23:14,657BC1E0,0,0,18575,0,0,144
00:23:22,657BC2E0,0,0,18575,0,0,143
00:23:38,657BC4E0,0,0,18575,0,0,143
00:23:46,657BC5E0,0,0,18575,0,0,142
00:23:54,657BC6E0,0,0,18575,0,0,142
00:24:02,657BC7E0,0,0,18575,0,0,142
00:24:10,657BC8E0,0,0,18575,0,0,141
00:24:18,657BC9E0,0,0,18575,0,0,141
00:24:26,657BCAE0,0,0,18575,0,0,141
00:24:42,657BCCE0,0,0,18575,0,0,141
00:24:50,657BCDE0,0,0,18575,0,0,141
00:24:58,657BCEE0,0,0,18575,0,0,141
00:25:14,657BD0E0,0,0,18575,0,0,142
00:25:22,657BD1E0,0,0,18575,0,0,142
00:25:30,657BD2E0,0,0,18575,0,0,142
00:25:46,657BD4E0,0,0,18575,0,0,142
00:25:54,657BD5E0,0,0,18575,0,0,142
00:26:02,657BD6E0,0,0,18575,0,0,143
00:26:10,657BD7E0,0,0,18575,0,0,143
00:26:18,657BD8E0,0,0,18575,0,0,143
00:26:26,657BD9E0,0,0,18575,0,0,143
00:26:34,657BDAE0,0,0,18575,0,0,144
00:26:50,657BDCE0,0,0,18575,0,0,144
00:26:58,657BDDE0,0,0,18575,0,0,144
00:27:06,657BDEE0,0,0,18575,0,0,144
00:27:14,657BDFE0,0,0,18575,0,0,144
00:27:22,657BE0E0,0,0,18575,0,0,144
00:27:30,657BE1E0,0,0,18575,0,0,145
00:27:38,657BE2E0,0,0,18575,0,0,145
00:27:54,657BE4E0,0,0,18575,0,0,145
00:28:02,657BE5E0,0,0,18575,0,0,145
00:28:10,657BE6E0,0,0,18575,0,0,145
00:28:18,657BE7E0,0,0,18575,0,0,146
00:28:26,657BE8E0,0,0,18575,0,0,146
00:28:34,657BE9E0,0,0,18575,0,0,146
00:28:42,657BEAE0,0,0,18575,0,0,146
00:28:58,657BECE0,0,0,18575,0,0,146
00:29:06,657BEDE0,0,0,18575,0,0,146
00:29:14,657BEEE0,0,0,18575,0,0,145
00:29:30,657BF0E0,0,0,18575,0,0,145
00:29:38,657BF1E0,0,0,18575,0,0,144
00:29:46,657BF2E0,0,0,18575,0,0,144
00:30:02,657BF4E0,0,0,18575,0,0,143
00:30:10,657BF5E0,0,0,18575,0,0,143
00:30:18,657BF6E0,0,0,18575,0,0,143
00:30:26,657BF7E0,0,0,18575,0,0,142
00:30:34,657BF8E0,0,0,18575,0,0,142
00:30:42,657BF9E0,0,0,18575,0,0,142
00:30:50,657BFAE0,0,0,18575,0,0,141
00:31:06,657BFCE0,0,0,18575,0,0,141
00:31:14,657BFDE0,0,0,18575,0,0,141
00:31:22,657BFEE0,0,0,18575,0,0,141
00:31:30,657BFFE0,0,0,18575,0,0,141
00:31:38,657C00E0,0,0,18575,0,0,141
00:31:46,657C01E0,0,0,18575,0,0,141
00:31:54,657C02E0,0,0,18575,0,0,142
00:32:10,657C04E0,0,0,18575,0,0,142
00:32:18,657C05E0,0,0,18575,0,0,142
00:32:26,657C06E0,0,0,18575,0,0,142
00:32:34,657C07E0,0,0,18575,0,0,143
00:32:42,657C08E0,0,0,18575,0,0,143
00:32:50,657C09E0,0,0,18575,0,0,143
00:32:58,657C0AE0,0,0,18575,0,0,143
00:33:14,657C0CE0,0,0,18575,0,0,144
00:33:22,657C0DE0,0,0,18575,0,0,144
00:33:30,657C0EE0,0,0,18575,0,0,144
00:33:46,657C10E0,0,0,18575,0,0,144
00:33:54,657C11E0,0,0,18575,0,0,144
00:34:02,657C12E0,0,0,18575,0,0,145
00:34:18,657C14E0,0,0,18575,0,0,145
00:34:26,657C15E0,0,0,18575,0,0,145
00:34:34,657C16E0,0,0,18575,0,0,145
00:34:42,657C17E0,0,0,18575,0,0,145
00:34:50,657C18E0,0,0,18575,0,0,145
00:34:58,657C19E0,0,0,18575,0,0,145
00:35:06,657C1AE0,0,0,18575,0,0,146
00:35:22,657C1CE0,0,0,18575,0,0,146
00:35:30,657C1DE0,0,0,18575,0,0,146
00:35:38,657C1EE0,0,0,18575,0,0,146
00:35:46,657C1FE0,0,0,18575,0,0,146
00:35:54,657C20E0,0,0,18575,0,0,145
00:36:02,657C21E0,0,0,18575,0,0,145
00:36:10,657C22E0,0,0,18575,0,0,145
00:36:26,657C24E0,0,0,18575,0,0,144
00:36:34,657C25E0,0,0,18575,0,0,143
00:36:42,657C26E0,0,0,18575,0,0,143
00:36:50,657C27E0,0,0,18575,0,0,143
00:36:58,657C28E0,0,0,18575,0,0,142
00:37:06,657C29E0,0,0,18575,0,0,142
00:37:14,657C2AE0,0,0,18575,0,0,142
00:37:30,657C2CE0,0,0,18575,0,0,141
00:37:38,657C2DE0,0,0,18575,0,0,141
00:37:46,657C2EE0,0,0,18575,0,0,141
00:38:02,657C30E0,0,0,18575,0,0,141
00:38:10,657C31E0,0,0,18575,0,0,141
00:38:18,657C32E0,0,0,18575,0,0,141
00:38:34,657C34E0,0,0,18575,0,0,141
00:38:42,657C35E0,0,0,18575,0,0,142
00:38:50,657C36E0,0,0,18575,0,0,142
00:38:58,657C37E0,0,0,18575,0,0,142
00:39:06,657C38E0,0,0,18575,0,0,143
00:39:14,657C39E0,0,0,18575,0,0,143
00:39:22,657C3AE0,0,0,18575,0,0,143
00:39:38,657C3CE0,0,0,18575,0,0,143
00:39:46,657C3DE0,0,0,18575,0,0,143
00:39:54,657C3EE0,0,0,18575,0,0,143
00:40:02,657C3FE0,0,0,18575,0,0,144
00:40:10,657C40E0,0,0,18575,0,0,144
00:40:18,657C41E0,0,0,18575,0,0,144
00:40:26,657C42E0,0,0,18575,0,0,144
00:40:42,657C44E0,0,0,18575,0,0,145
00:40:50,657C45E0,0,0,18575,0,0,145
00:40:58,657C46E0,0,0,18575,0,0,145
00:41:06,657C47E0,0,0,18575,0,0,145
00:41:14,657C48E0,0,0,18575,0,0,145
00:41:22,657C49E0,0,0,18575,0,0,145
00:41:30,657C4AE0,0,0,18575,0,0,145
00:41:46,657C4CE0,0,0,18575,0,0,145
00:41:54,657C4DE0,0,0,18575,0,0,145
00:42:02,657C4EE0,0,0,18575,0,0,145
00:42:18,657C50E0,0,0,18575,0,0,146
00:42:26,657C51E0,0,0,18575,0,0,146
00:42:34,657C52E0,0,0,18575,0,0,145
00:42:50,657C54E0,0,0,18575,0,0,145
00:42:58,657C55E0,0,0,18575,0,0,144
00:43:06,657C56E0,0,0,18575,0,0,144
00:43:14,657C57E0,0,0,18575,0,0,143
00:43:22,657C58E0,0,0,18575,0,0,143
00:43:30,657C59E0,0,0,18575,0,0,143
00:43:38,657C5AE0,0,0,18575,0,0,142
00:43:54,657C5CE0,0,0,18575,0,0,142
00:44:02,657C5DE0,0,0,18575,0,0,142
00:44:10,657C5EE0,0,0,18575,0,0,141
00:44:18,657C5FE0,0,0,18575,0,0,141
00:44:26,657C60E0,0,0,18575,0,0,141
00:44:34,657C61E0,0,0,18575,0,0,141
00:44:42,657C62E0,0,0,18575,0,0,141
00:44:58,657C64E0,0,0,18575,0,0,141
00:45:06,657C65E0,0,0,18575,0,0,141
00:45:14,657C66E0,0,0,18575,0,0,141
00:45:22,657C67E0,0,0,18575,0,0,142
00:45:30,657C68E0,0,0,18575,0,0,142
00:45:38,657C69E0,0,0,18575,0,0,142
00:45:46,657C6AE0,0,0,18575,0,0,142
00:46:02,657C6CE0,0,0,18575,0,0,143
00:46:10,657C6DE0,0,0,18575,0,0,143
00:46:18,657C6EE0,0,0,18575,0,0,143
00:46:34,657C70E0,0,0,18575,0,0,144
00:46:42,657C71E0,0,0,18575,0,0,144
00:46:50,657C72E0,0,0,18575,0,0,144
00:47:06,657C74E0,0,0,18575,0,0,144
00:47:14,657C75E0,0,0,18575,0,0,144
00:47:22,657C76E0,0,0,18575,0,0,144
00:47:30,657C77E0,0,0,18575,0,0,144
00:47:38,657C78E0,0,0,18575,0,0,145
00:47:46,657C79E0,0,0,18575,0,0,145
00:47:54,657C7AE0,0,0,18575,0,0,145
00:48:10,657C7CE0,0,0,18575,0,0,145
00:48:18,657C7DE0,0,0,18575,0,0,145
00:48:26,657C7EE0,0,0,18575,0,0,145
00:48:34,657C7FE0,0,0,18575,0,0,145
00:48:42,657C80E0,0,0,18575,0,0,146
00:48:50,657C81E0,0,0,18575,0,0,146
00:48:58,657C82E0,0,0,18575,0,0,146
00:49:14,657C84E0,0,0,18575,0,0,146
00:49:22,657C85E0,0,0,18575,0,0,145
00:49:30,657C86E0,0,0,18575,0,0,145
00:49:38,657C87E0,0,0,18575,0,0,145
00:49:46,657C88E0,0,0,18575,0,0,144
00:49:54,657C89E0,0,0,18575,0,0,144
00:50:02,657C8AE0,0,0,18575,0,0,144
00:50:18,657C8CE0,0,0,18575,0,0,143
00:50:26,657C8DE0,0,0,18575,0,0,143
00:50:34,657C8EE0,0,0,18575,0,0,142
00:50:50,657C90E0,0,0,18575,0,0,141
00:50:58,657C91E0,0,0,18575,0,0,141
00:51:06,657C92E0,0,0,18575,0,0,141
00:51:22,657C94E0,0,0,18575,0,0,140
00:51:30,657C95E0,0,0,18575,0,0,141
00:51:38,657C96E0,0,0,18575,0,0,141
00:51:46,657C97E0,0,0,18575,0,0,141
00:51:54,657C98E0,0,0,18575,0,0,141
00:52:02,657C99E0,0,0,18575,0,0,142
00:52:10,657C9AE0,0,0,18575,0,0,142
00:52:26,657C9CE0,0,0,18575,0,0,142
00:52:34,657C9DE0,0,0,18575,0,0,142
00:52:42,657C9EE0,0,0,18575,0,0,142
00:52:50,657C9FE0,0,0,18575,0,0,143
00:52:58,657CA0E0,0,0,18575,0,0,143
00:53:06,657CA1E0,0,0,18575,0,0,143
00:53:14,657CA2E0,0,0,18575,0,0,143
00:53:30,657CA4E0,0,0,18575,0,0,144
00:53:38,657CA5E0,0,0,18575,0,0,144
00:53:46,657CA6E0,0,0,18575,0,0,144
00:53:54,657CA7E0,0,0,18575,0,0,144
00:54:02,657CA8E0,0,0,18575,0,0,144
00:54:10,657CA9E0,0,0,18575,0,0,144
00:54:18,657CAAE0,0,0,18575,0,0,144
00:54:34,657CACE0,0,0,18575,0,0,145
00:54:42,657CADE0,0,0,18575,0,0,145
00:54:50,657CAEE0,0,0,18575,0,0,145
00:55:06,657CB0E0,0,0,18575,0,0,145
00:55:14,657CB1E0,0,0,18575,0,0,146
00:55:22,657CB2E0,0,0,18575,0,0,146
00:55:38,657CB4E0,0,0,18575,0,0,146
00:55:46,657CB5E0,0,0,18575,0,0,146
00:55:54,657CB6E0,0,0,18575,0,0,146
00:56:02,657CB7E0,0,0,18575,0,0,146
00:56:10,657CB8E0,0,0,18575,0,0,145
00:56:18,657CB9E0,0,0,18575,0,0,145
00:56:26,657CBAE0,0,0,18575,0,0,145
00:56:42,657CBCE0,0,0,18575,0,0,144
00:56:50,657CBDE0,0,0,18575,0,0,144
00:56:58,657CBEE0,0,0,18575,0,0,143
00:57:06,657CBFE0,0,0,18575,0,0,143
00:57:14,657CC0E0,0,0,18575,0,0,143
00:57:22,657CC1E0,0,0,18575,0,0,142
00:57:30,657CC2E0,0,0,18575,0,0,142
00:57:46,657CC4E0,0,0,18575,0,0,141
00:57:54,657CC5E0,0,0,18575,0,0,141
00:58:02,657CC6E0,0,0,18575,0,0,141
00:58:10,657CC7E0,0,0,18575,0,0,141
00:58:18,657CC8E0,0,0,18575,0,0,141
00:58:26,657CC9E0,0,0,18575,0,0,141
00:58:34,657CCAE0,0,0,18575,0,0,141
00:58:50,657CCCE0,0,0,18575,0,0,142
00:58:58,657CCDE0,0,0,18575,0,0,142
00:59:06,657CCEE0,0,0,18575,0,0,142
00:59:22,657CD0E0,0,0,18575,0,0,142
00:59:30,657CD1E0,0,0,18575,0,0,142
00:59:38,657CD2E0,0,0,18575,0,0,143
00:59:54,657CD4E0,0,0,18575,0,0,143
01:00:02,657CD5E0,0,0,18575,0,0,143
01:00:10,657CD6E0,0,0,18575,0,0,144
01:00:18,657CD7E0,0,0,18575,0,0,144
01:00:26,657CD8E0,0,0,18575,0,0,144
01:00:34,657CD9E0,0,0,18575,0,0,144
01:00:42,657CDAE0,0,0,18575,0,0,144
01:00:58,657CDCE0,0,0,18575,0,0,144
01:01:06,657CDDE0,0,0,18575,0,0,145
01:01:14,657CDEE0,0,0,18575,0,0,145
01:01:22,657CDFE0,0,0,18575,0,0,145
01:01:30,657CE0E0,0,0,18575,0,0,145
01:01:38,657CE1E0,0,0,18575,0,0,145
01:01:46,657CE2E0,0,0,18575,0,0,145
01:02:02,657CE4E0,0,0,18575,0,0,146
01:02:10,657CE5E0,0,0,18575,0,0,146
01:02:18,657CE6E0,0,0,18575,0,0,146
01:02:26,657CE7E0,0,0,18575,0,0,146
01:02:34,657CE8E0,0,0,18575,0,0,146
01:02:42,657CE9E0,0,0,18575,0,0,146
01:02:50,657CEAE0,0,0,18575,0,0,145
01:03:06,657CECE0,0,0,18575,0,0,145
01:03:14,657CEDE0,0,0,18575,0,0,144
01:03:22,657CEEE0,0,0,18575,0,0,144
01:03:38,657CF0E0,0,0,18575,0,0,143
01:03:46,657CF1E0,0,0,18575,0,0,143
01:03:53,657CF2E0,0,0,18575,0,0,143
01:04:09,657CF4E0,0,0,18575,0,0,142
01:04:17,657CF5E0,0,0,18575,0,0,142
01:04:25,657CF6E0,0,0,18575,0,0,141
01:04:33,657CF7E0,0,0,18575,0,0,141
01:04:41,657CF8E0,0,0,18575,0,0,141
01:04:49,657CF9E0,0,0,18575,0,0,141
01:04:57,657CFAE0,0,0,18575,0,0,141
01:05:13,657CFCE0,0,0,18575,0,0,141
01:05:21,657CFDE0,0,0,18575,0,0,141
01:05:29,657CFEE0,0,0,18575,0,0,142
01:05:37,657CFFE0,0,0,18575,0,0,142
01:05:45,657D00E0,0,0,18575,0,0,142
01:05:53,657D01E0,0,0,18575,0,0,142
01:06:01,657D02E0,0,0,18575,0,0,142
01:06:17,657D04E0,0,0,18575,0,0,143
01:06:25,657D05E0,0,0,18575,0,0,143
01:06:33,657D06E0,0,0,18575,0,0,143
01:06:41,657D07E0,0,0,18575,0,0,143
01:06:49,657D08E0,0,0,18575,0,0,144
01:06:57,657D09E0,0,0,18575,0,0,144
01:07:05,657D0AE0,0,0,18575,0,0,144
01:07:21,657D0CE0,0,0,18575,0,0,144
01:07:29,657D0DE0,0,0,18575,0,0,144
01:07:37,657D0EE0,0,0,18575,0,0,145
01:07:53,657D10E0,0,0,18575,0,0,145
01:08:01,657D11E0,0,0,18575,0,0,145
01:08:09,657D12E0,0,0,18575,0,0,145
01:08:25,657D14E0,0,0,18575,0,0,145
01:08:33,657D15E0,0,0,18575,0,0,145
01:08:41,657D16E0,0,0,18575,0,0,145
01:08:49,657D17E0,0,0,18575,0,0,145
01:08:57,657D18E0,0,0,18575,0,0,145
01:09:05,657D19E0,0,0,18575,0,0,146
01:09:13,657D1AE0,0,0,18575,0,0,146
01:09:29,657D1CE0,0,0,18575,0,0,146
01:09:37,657D1DE0,0,0,18575,0,0,146
01:09:45,657D1EE0,0,0,18575,0,0,145
01:09:53,657D1FE0,0,0,18575,0,0,145
01:10:01,657D20E0,0,0,18575,0,0,144
01:10:09,657D21E0,0,0,18575,0,0,144
01:10:17,657D22E0,0,0,18575,0,0,144
01:10:33,657D24E0,0,0,18575,0,0,143
01:10:41,657D25E0,0,0,18575,0,0,143
01:10:49,657D26E0,0,0,18575,0,0,142
01:10:57,657D27E0,0,0,18575,0,0,142
01:11:05,657D28E0,0,0,18575,0,0,142
01:11:13,657D29E0,0,0,18575,0,0,142
01:11:21,657D2AE0,0,0,18575,0,0,141
01:11:37,657D2CE0,0,0,18575,0,0,141
01:11:45,657D2DE0,0,0,18575,0,0,141
01:11:53,657D2EE0,0,0,18575,0,0,141
01:12:09,657D30E0,0,0,18575,0,0,141
01:12:17,657D31E0,0,0,18575,0,0,141
01:12:25,657D32E0,0,0,18575,0,0,141
01:12:41,657D34E0,0,0,18575,0,0,142
01:12:49,657D35E0,0,0,18575,0,0,142
01:12:57,657D36E0,0,0,18575,0,0,142
01:13:05,657D37E0,0,0,18575,0,0,143
01:13:13,657D38E0,0,0,18575,0,0,143
01:13:21,657D39E0,0,0,18575,0,0,143
01:13:29,657D3AE0,0,0,18575,0,0,143
01:13:45,657D3CE0,0,0,18575,0,0,143
01:13:53,657D3DE0,0,0,18575,0,0,144
01:14:01,657D3EE0,0,0,18575,0,0,144
01:14:09,657D3FE0,0,0,18575,0,0,144
01:14:17,657D40E0,0,0,18575,0,0,144
01:14:25,657D41E0,0,0,18575,0,0,144
01:14:33,657D42E0,0,0,18575,0,0,145
01:14:49,657D44E0,0,0,18575,0,0,145
01:14:57,657D45E0,0,0,18575,0,0,145
01:15:05,657D46E0,0,0,18575,0,0,145
01:15:13,657D47E0,0,0,18575,0,0,145
01:15:21,657D48E0,0,0,18575,0,0,145
01:15:29,657D49E0,0,0,18575,0,0,145
01:15:37,657D4AE0,0,0,18575,0,0,145
01:15:53,657D4CE0,0,0,18575,0,0,146
01:16:01,657D4DE0,0,0,18575,0,0,146
01:16:09,657D4EE0,0,0,18575,0,0,146
01:16:25,657D50E0,0,0,18575,0,0,146
01:16:33,657D51E0,0,0,18575,0,0,145
01:16:41,657D52E0,0,0,18575,0,0,145
01:16:57,657D54E0,0,0,18575,0,0,144
01:17:05,657D55E0,0,0,18575,0,0,144
01:17:13,657D56E0,0,0,18575,0,0,143
01:17:21,657D57E0,0,0,18575,0,0,143
01:17:29,657D58E0,0,0,18575,0,0,142
01:17:37,657D59E0,0,0,18575,0,0,142
01:17:45,657D5AE0,0,0,18575,0,0,142
01:18:01,657D5CE0,0,0,18575,0,0,141
01:18:09,657D5DE0,0,0,18575,0,0,141
01:18:17,657D5EE0,0,0,18575,0,0,141
01:18:25,657D5FE0,0,0,18575,0,0,141
01:18:33,657D60E0,0,0,18575,0,0,141
01:18:41,657D61E0,0,0,18575,0,0,141
01:18:49,657D62E0,0,0,18575,0,0,141
01:19:05,657D64E0,0,0,18575,0,0,141
01:19:13,657D65E0,0,0,18575,0,0,142
01:19:21,657D66E0,0,0,18575,0,0,142
01:19:29,657D67E0,0,0,18575,0,0,142
01:19:37,657D68E0,0,0,18575,0,0,142
01:19:45,657D69E0,0,0,18575,0,0,143
01:19:53,657D6AE0,0,0,18575,0,0,143
01:20:09,657D6CE0,0,0,18575,0,0,143
01:20:17,657D6DE0,0,0,18575,0,0,143
01:20:25,657D6EE0,0,0,18575,0,0,144
01:20:41,657D70E0,0,0,18575,0,0,144
01:20:49,657D71E0,0,0,18575,0,0,144
01:20:57,657D72E0,0,0,18575,0,0,144
01:21:13,657D74E0,0,0,18575,0,0,144
01:21:21,657D75E0,0,0,18575,0,0,145
01:21:29,657D76E0,0,0,18575,0,0,145
01:21:37,657D77E0,0,0,18575,0,0,145
01:21:45,657D78E0,0,0,18575,0,0,145
01:21:53,657D79E0,0,0,18575,0,0,145
01:22:01,657D7AE0,0,0,18575,0,0,145
01:22:17,657D7CE0,0,0,18575,0,0,145
01:22:25,657D7DE0,0,0,18575,0,0,145
01:22:33,657D7EE0,0,0,18575,0,0,146
01:22:41,657D7FE0,0,0,18575,0,0,146
01:22:49,657D80E0,0,0,18575,0,0,146
01:22:57,657D81E0,0,0,18575,0,0,146
01:23:05,657D82E0,0,0,18575,0,0,146
01:23:21,657D84E0,0,0,18575,0,0,145
01:23:29,657D85E0,0,0,18575,0,0,145
01:23:37,657D86E0,0,0,18575,0,0,145
01:23:45,657D87E0,0,0,18575,0,0,144
01:23:53,657D88E0,0,0,18575,0,0,144
01:24:01,657D89E0,0,0,18575,0,0,143
01:24:09,657D8AE0,0,0,18575,0,0,143
01:24:25,657D8CE0,0,0,18575,0,0,142
01:24:33,657D8DE0,0,0,18575,0,0,142
01:24:41,657D8EE0,0,0,18575,0,0,142
01:24:57,657D90E0,0,0,18575,0,0,141
01:25:05,657D91E0,0,0,18575,0,0,141
01:25:13,657D92E0,0,0,18575,0,0,141
01:25:29,657D94E0,0,0,18575,0,0,141
01:25:37,657D95E0,0,0,18575,0,0,141
01:25:45,657D96E0,0,0,18575,0,0,141
01:25:53,657D97E0,0,0,18575,0,0,141
01:26:01,657D98E0,0,0,18575,0,0,142
01:26:09,657D99E0,0,0,18575,0,0,142
01:26:17,657D9AE0,0,0,18575,0,0,142
01:26:33,657D9CE0,0,0,18575,0,0,142
01:26:41,657D9DE0,0,0,18575,0,0,143
01:26:49,657D9EE0,0,0,18575,0,0,143
01:26:57,657D9FE0,0,0,18575,0,0,143
01:27:05,657DA0E0,0,0,18575,0,0,143
01:27:13,657DA1E0,0,0,18575,0,0,144
01:27:21,657DA2E0,0,0,18575,0,0,144
01:27:37,657DA4E0,0,0,18575,0,0,144
01:27:45,657DA5E0,0,0,18575,0,0,144
01:27:53,657DA6E0,0,0,18575,0,0,144
01:28:01,657DA7E0,0,0,18575,0,0,144
01:28:09,657DA8E0,0,0,18575,0,0,145
01:28:17,657DA9E0,0,0,18575,0,0,145
01:28:25,657DAAE0,0,0,18575,0,0,145
01:28:41,657DACE0,0,0,18575,0,0,145
01:28:49,657DADE0,0,0,18575,0,0,145
01:28:57,657DAEE0,0,0,18575,0,0,145
01:29:13,657DB0E0,0,0,18575,0,0,146
01:29:21,657DB1E0,0,0,18575,0,0,146
01:29:29,657DB2E0,0,0,18575,0,0,146
01:29:45,657DB4E0,0,0,18575,0,0,146
01:29:53,657DB5E0,0,0,18575,0,0,146
01:30:01,657DB6E0,0,0,18575,0,0,145
01:30:09,657DB7E0,0,0,18575,0,0,145
01:30:17,657DB8E0,0,0,18575,0,0,145
01:30:25,657DB9E0,0,0,18575,0,0,144
01:30:33,657DBAE0,0,0,18575,0,0,144
01:30:49,657DBCE0,0,0,18575,0,0,143
01:30:57,657DBDE0,0,0,18575,0,0,143
01:31:05,657DBEE0,0,0,18575,0,0,143
01:31:13,657DBFE0,0,0,18575,0,0,142
01:31:21,657DC0E0,0,0,18575,0,0,142
01:31:29,657DC1E0,0,0,18575,0,0,142
01:31:37,657DC2E0,0,0,18575,0,0,141
01:31:53,657DC4E0,0,0,18575,0,0,141
01:32:01,657DC5E0,0,0,18575,0,0,141
01:32:09,657DC6E0,0,0,18575,0,0,141
01:32:17,657DC7E0,0,0,18575,0,0,141
01:32:25,657DC8E0,0,0,18575,0,0,141
01:32:33,657DC9E0,0,0,18575,0,0,141
01:32:41,657DCAE0,0,0,18575,0,0,142
01:32:57,657DCCE0,0,0,18575,0,0,142
01:33:05,657DCDE0,0,0,18575,0,0,142
01:33:13,657DCEE0,0,0,18575,0,0,142
01:33:29,657DD0E0,0,0,18575,0,0,143
01:33:37,657DD1E0,0,0,18575,0,0,143
01:33:45,657DD2E0,0,0,18575,0,0,143
01:34:01,657DD4E0,0,0,18575,0,0,144
01:34:09,657DD5E0,0,0,18575,0,0,144
01:34:17,657DD6E0,0,0,18575,0,0,144
01:34:25,657DD7E0,0,0,18575,0,0,144
01:34:33,657DD8E0,0,0,18575,0,0,144
01:34:41,657DD9E0,0,0,18575,0,0,144
01:34:49,657DDAE0,0,0,18575,0,0,144
01:35:05,657DDCE0,0,0,18575,0,0,145
01:35:13,657DDDE0,0,0,18575,0,0,145
01:35:21,657DDEE0,0,0,18575,0,0,145
01:35:29,657DDFE0,0,0,18575,0,0,145
01:35:37,657DE0E0,0,0,18575,0,0,145
01:35:45,657DE1E0,0,0,18575,0,0,146
01:35:53,657DE2E0,0,0,18575,0,0,146
01:36:09,657DE4E0,0,0,18575,0,0,146
01:36:17,657DE5E0,0,0,18575,0,0,146
01:36:25,657DE6E0,0,0,18575,0,0,146
01:36:33,657DE7E0,0,0,18575,0,0,145
01:36:41,657DE8E0,0,0,18575,0,0,145
01:36:49,657DE9E0,0,0,18575,0,0,145
01:36:57,657DEAE0,0,0,18575,0,0,144
01:37:13,657DECE0,0,0,18575,0,0,144
01:37:21,657DEDE0,0,0,18575,0,0,143
01:37:29,657DEEE0,0,0,18575,0,0,143
01:37:45,657DF0E0,0,0,18575,0,0,142
01:37:53,657DF1E0,0,0,18575,0,0,142
01:38:01,657DF2E0,0,0,18575,0,0,142
01:38:17,657DF4E0,0,0,18575,0,0,141
01:38:25,657DF5E0,0,0,18575,0,0,141
01:38:33,657DF6E0,0,0,18575,0,0,141
01:38:41,657DF7E0,0,0,18575,0,0,141
01:38:49,657DF8E0,0,0,18575,0,0,141
01:38:57,657DF9E0,0,0,18575,0,0,141
01:39:05,657DFAE0,0,0,18575,0,0,141
01:39:21,657DFCE0,0,0,18575,0,0,142
01:39:29,657DFDE0,0,0,18575,0,0,142
01:39:37,657DFEE0,0,0,18575,0,0,142
01:39:45,657DFFE0,0,0,18575,0,0,142
01:39:53,657E00E0,0,0,18575,0,0,143
01:40:01,657E01E0,0,0,18575,0,0,143
01:40:09,657E02E0,0,0,18575,0,0,143
01:40:25,657E04E0,0,0,18575,0,0,143
01:40:33,657E05E0,0,0,18575,0,0,144
01:40:41,657E06E0,0,0,18575,0,0,144
01:40:49,657E07E0,0,0,18575,0,0,144
01:40:57,657E08E0,0,0,18575,0,0,144
01:41:05,657E09E0,0,0,18575,0,0,144
01:41:13,657E0AE0,0,0,18575,0,0,144
01:41:29,657E0CE0,0,0,18575,0,0,145
01:41:37,657E0DE0,0,0,18575,0,0,145
01:41:45,657E0EE0,0,0,18575,0,0,145
01:42:01,657E10E0,0,0,18575,0,0,145
01:42:09,657E11E0,0,0,18575,0,0,145
01:42:17,657E12E0,0,0,18575,0,0,145